SA3PJN-WX Weather Reports


time (UTC)temp
C
wind
direction
speed
KPH
gust
KPH
rain 1hr
cm
rain 24hr
cm
rain mn
cm
humidity
%
barometer
mb
20260507195512 4 260 4.8 11.3 0.00 0.00 0.00 56 975.0
20260507195012 5 254 4.8 11.3 0.00 0.00 0.00 55 975.0
20260507194442 5 240 4.8 9.7 0.00 0.00 0.00 54 975.0
20260507193912 5 242 3.2 8.0 0.00 0.00 0.00 53 975.0
20260507193412 5 220 3.2 11.3 0.00 0.00 0.00 53 975.0
20260507192912 5 210 4.8 12.9 0.00 0.00 0.00 53 975.0
20260507192342 6 194 4.8 12.9 0.00 0.00 0.00 52 974.6
20260507191842 6 173 6.4 14.5 0.00 0.00 0.00 50 974.6
20260507191342 6 182 6.4 16.1 0.00 0.00 0.00 48 974.5
20260507190842 6 152 6.4 16.1 0.00 0.00 0.00 47 974.3
20260507190342 7 136 6.4 17.7 0.00 0.00 0.00 45 974.3
20260507185842 7 187 4.8 17.7 0.00 0.00 0.00 43 974.3
20260507185312 7 120 3.2 17.7 0.00 0.00 0.00 42 974.2
20260507184812 7 98 3.2 12.9 0.00 0.00 0.00 41 974.2
20260507184312 7 191 3.2 12.9 0.00 0.00 0.00 41 974.2
20260507183812 7 99 3.2 12.9 0.00 0.00 0.00 43 974.0
20260507183312 6 97 3.2 16.1 0.00 0.00 0.00 45 974.0
20260507182812 6 155 3.2 16.1 0.00 0.00 0.00 44 974.0
20260507182312 7 145 4.8 16.1 0.00 0.00 0.00 43 974.0
20260507181812 7 122 4.8 20.9 0.00 0.00 0.00 43 974.0
20260507181312 7 90 6.4 20.9 0.00 0.00 0.00 43 973.6
20260507180812 7 136 6.4 17.7 0.00 0.00 0.00 40 974.0
20260507180312 7 187 6.4 17.7 0.00 0.00 0.00 38 973.6
20260507175812 7 175 4.8 17.7 0.00 0.00 0.00 38 973.5
20260507175242 7 127 4.8 17.7 0.00 0.00 0.00 37 973.5
20260507174742 7 184 4.8 17.7 0.00 0.00 0.00 38 973.4
20260507174242 7 152 4.8 17.7 0.00 0.00 0.00 37 973.4
20260507173712 8 161 4.8 12.9 0.00 0.00 0.00 40 973.4
20260507173212 8 124 1.6 12.9 0.00 0.00 0.00 39 973.4
20260507172712 8 336 1.6 14.5 0.00 0.00 0.00 39 973.3
20260507172212 8 189 3.2 14.5 0.00 0.00 0.00 37 973.2
20260507171712 7 40 3.2 14.5 0.00 0.00 0.00 38 973.2
20260507171212 7 98 3.2 14.5 0.00 0.00 0.00 38 973.2
20260507170711 7 151 3.2 14.5 0.00 0.00 0.00 39 973.0
20260507170211 7 133 4.8 14.5 0.00 0.00 0.00 41 973.0
20260507165711 7 131 4.8 14.5 0.00 0.00 0.00 38 973.0
20260507165211 8 73 4.8 12.9 0.00 0.00 0.00 41 973.0
20260507164711 7 246 4.8 16.1 0.00 0.00 0.00 39 973.0
20260507164211 8 135 6.4 16.1 0.00 0.00 0.00 40 973.0
20260507163711 7 197 8.0 20.9 0.00 0.00 0.00 41 973.0
20260507163211 7 184 9.7 20.9 0.00 0.00 0.00 40 973.0
20260507162711 7 173 8.0 20.9 0.00 0.00 0.00 39 973.0
20260507162211 8 187 6.4 20.9 0.00 0.00 0.00 40 973.0
20260507161711 8 162 6.4 19.3 0.00 0.00 0.00 41 973.0
20260507161211 8 187 6.4 19.3 0.00 0.00 0.00 39 973.0
20260507160711 8 236 4.8 14.5 0.00 0.00 0.00 38 973.0
20260507160141 8 208 4.8 9.7 0.00 0.00 0.00 39 973.0
20260507155641 8 197 3.2 14.5 0.00 0.00 0.00 39 973.0
20260507155111 8 66 6.4 16.1 0.00 0.00 0.00 40 973.0
20260507154541 8 150 8.0 29.0 0.00 0.00 0.00 40 973.0
20260507154041 8 183 9.7 29.0 0.00 0.00 0.00 41 972.6
20260507153541 8 187 9.7 20.9 0.00 0.00 0.00 41 973.0
20260507153011 8 199 9.7 22.5 0.00 0.00 0.00 41 973.0
20260507152511 8 226 11.3 30.6 0.00 0.00 0.00 40 973.0
20260507151941 8 187 11.3 30.6 0.00 0.00 0.00 39 972.6
20260507151411 8 238 9.7 24.1 0.00 0.00 0.00 38 972.6
20260507150911 8 195 9.7 24.1 0.00 0.00 0.00 39 972.5
20260507150411 8 199 9.7 24.1 0.00 0.00 0.00 38 972.4
20260507145841 8 172 8.0 20.9 0.00 0.00 0.00 38 972.4
20260507145341 9 151 8.0 20.9 0.00 0.00 0.00 35 972.3
20260507144811 10 192 6.4 20.9 0.00 0.00 0.00 33 972.4
20260507144241 11 95 4.8 14.5 0.00 0.00 0.00 33 972.3
20260507143741 12 88 3.2 12.9 0.00 0.00 0.00 31 972.4
20260507143241 12 94 4.8 20.9 0.00 0.00 0.00 33 972.4
20260507142711 11 67 3.2 20.9 0.00 0.00 0.00 34 972.3
20260507142211 11 82 3.2 16.1 0.00 0.00 0.00 35 972.4
20260507141641 10 65 4.8 16.1 0.00 0.00 0.00 34 972.3
20260507141141 9 139 6.4 19.3 0.00 0.00 0.00 38 972.4
20260507140611 8 119 8.0 19.3 0.00 0.00 0.00 40 972.3
20260507140111 8 182 6.4 19.3 0.00 0.00 0.00 39 972.2
20260507135610 8 184 4.8 14.5 0.00 0.00 0.00 37 972.3
20260507135111 8 111 4.8 16.1 0.00 0.00 0.00 37 972.3
20260507134610 8 170 4.8 19.3 0.00 0.00 0.00 36 972.2
20260507134110 9 91 6.4 20.9 0.00 0.00 0.00 36 972.1
20260507133610 9 195 8.0 20.9 0.00 0.00 0.00 38 972.1
20260507133110 8 180 8.0 20.9 0.00 0.00 0.00 38 972.0
20260507132610 9 102 8.0 25.7 0.00 0.00 0.00 37 972.0
20260507132110 8 173 6.4 25.7 0.00 0.00 0.00 36 972.0
20260507131541 10 231 4.8 19.3 0.00 0.00 0.00 35 972.0
20260507131040 10 2 6.4 14.5 0.00 0.00 0.00 35 972.0
20260507130540 10 277 6.4 17.7 0.00 0.00 0.00 34 972.0
20260507130040 9 213 6.4 22.5 0.00 0.00 0.00 35 972.0
20260507125510 10 134 6.4 22.5 0.00 0.00 0.00 37 972.0
20260507124940 10 202 6.4 22.5 0.00 0.00 0.00 37 972.1
20260507124410 8 191 8.0 27.4 0.00 0.00 0.00 37 972.1
20260507123910 8 184 9.7 27.4 0.00 0.00 0.00 39 972.0
20260507123410 8 184 9.7 24.1 0.00 0.00 0.00 41 972.0
20260507122840 8 190 9.7 24.1 0.00 0.00 0.00 41 972.1
20260507122340 8 77 9.7 25.7 0.00 0.00 0.00 42 972.0
20260507121840 8 133 9.7 25.7 0.00 0.00 0.00 41 972.0
20260507121310 9 4 8.0 24.1 0.00 0.00 0.00 41 972.0
20260507120810 9 219 8.0 24.1 0.00 0.00 0.00 41 972.0
20260507120240 10 124 8.0 24.1 0.00 0.00 0.00 40 972.0
20260507115740 9 109 8.0 24.1 0.00 0.00 0.00 40 972.0
20260507115240 9 126 9.7 24.1 0.00 0.00 0.00 41 972.0
20260507114740 8 154 9.7 27.4 0.00 0.00 0.00 41 972.0
20260507114240 8 217 9.7 27.4 0.00 0.00 0.00 44 972.0
20260507113740 8 180 9.7 27.4 0.00 0.00 0.00 43 972.0
20260507113240 8 236 8.0 20.9 0.00 0.00 0.00 45 972.0
20260507112740 8 129 8.0 25.7 0.00 0.00 0.00 44 972.0
20260507112240 8 256 9.7 27.4 0.00 0.00 0.00 46 972.0
20260507111740 8 212 9.7 27.4 0.00 0.00 0.00 46 971.6
20260507111210 8 119 8.0 20.9 0.00 0.00 0.00 45 971.6
20260507110710 8 80 8.0 22.5 0.00 0.00 0.00 45 971.6
20260507110140 7 176 9.7 22.5 0.00 0.00 0.00 48 971.6
20260507105640 7 125 8.0 19.3 0.00 0.00 0.00 49 971.6
20260507105140 7 184 8.0 20.9 0.00 0.00 0.00 47 971.6
20260507104640 8 116 6.4 22.5 0.00 0.00 0.00 48 971.5
20260507104140 9 145 6.4 22.5 0.00 0.00 0.00 45 971.5
20260507103610 10 170 4.8 22.5 0.00 0.00 0.00 43 971.5
20260507103040 10 340 4.8 19.3 0.00 0.00 0.00 42 971.4
20260507102510 11 116 4.8 17.7 0.00 0.00 0.00 42 971.4
20260507101940 11 132 6.4 17.7 0.00 0.00 0.00 43 971.4
20260507101440 12 101 4.8 16.1 0.00 0.00 0.00 41 971.3
20260507100940 12 122 4.8 14.5 0.00 0.00 0.00 44 971.6
20260507100440 11 169 4.8 17.7 0.00 0.00 0.00 45 971.7
20260507095940 11 113 6.4 17.7 0.00 0.00 0.00 44 971.3
20260507095440 11 173 6.4 17.7 0.00 0.00 0.00 46 971.3
20260507094910 11 198 4.8 12.9 0.00 0.00 0.00 44 971.2
20260507094409 11 179 4.8 17.7 0.00 0.00 0.00 46 971.6
20260507093840 11 168 4.8 17.7 0.00 0.00 0.00 47 971.5
20260507093339 11 217 4.8 12.9 0.00 0.00 0.00 45 971.3
20260507092839 11 189 4.8 14.5 0.00 0.00 0.00 46 971.6
20260507092310 11 200 4.8 14.5 0.00 0.00 0.00 46 971.5
20260507091809 10 145 4.8 22.5 0.00 0.00 0.00 50 971.5
20260507091309 10 264 6.4 22.5 0.00 0.00 0.00 53 971.5
20260507090809 10 95 4.8 17.7 0.00 0.00 0.00 48 971.2
20260507090309 11 144 4.8 14.5 0.00 0.00 0.00 50 971.4
20260507085809 10 243 4.8 16.1 0.00 0.00 0.00 53 971.5
20260507085309 10 153 4.8 19.3 0.00 0.00 0.00 52 971.3
20260507084809 10 183 4.8 19.3 0.00 0.00 0.00 53 971.3
20260507084309 10 173 4.8 16.1 0.00 0.00 0.00 52 971.4
20260507083809 10 99 4.8 16.1 0.00 0.00 0.00 53 971.2
20260507083309 10 139 6.4 16.1 0.00 0.00 0.00 54 971.2
20260507082809 9 151 4.8 16.1 0.00 0.00 0.00 56 971.1
20260507082309 10 135 4.8 14.5 0.00 0.00 0.00 55 971.2
20260507081809 10 158 4.8 19.3 0.00 0.00 0.00 57 971.1
20260507081309 9 144 4.8 19.3 0.00 0.00 0.00 57 971.1
20260507080739 9 110 4.8 19.3 0.00 0.00 0.00 57 971.1
20260507080239 9 132 4.8 14.5 0.00 0.00 0.00 56 971.1
20260507075709 9 147 4.8 14.5 0.00 0.00 0.00 60 971.1
20260507075209 8 128 4.8 14.5 0.00 0.00 0.00 58 971.0
20260507074709 9 181 4.8 14.5 0.00 0.00 0.00 60 971.0
20260507074209 9 166 4.8 12.9 0.00 0.00 0.00 58 971.1
20260507073709 10 148 4.8 12.9 0.00 0.00 0.00 57 970.9
20260507073209 10 165 4.8 12.9 0.00 0.00 0.00 58 970.9
20260507072709 9 160 4.8 11.3 0.00 0.00 0.00 59 970.9
20260507072209 9 112 3.2 11.3 0.00 0.00 0.00 57 970.8
20260507071709 10 185 3.2 11.3 0.00 0.00 0.00 57 970.8
20260507071209 9 114 3.2 11.3 0.00 0.00 0.00 59 970.9
20260507070709 8 88 4.8 17.7 0.00 0.00 0.00 58 970.9
20260507070209 7 150 4.8 17.7 0.00 0.00 0.00 58 970.7
20260507065708 7 111 6.4 17.7 0.00 0.00 0.00 60 970.8
20260507065208 6 69 6.4 16.1 0.00 0.00 0.00 65 970.8
20260507064709 6 189 6.4 16.1 0.00 0.00 0.00 62 970.5
20260507064208 6 158 4.8 16.1 0.00 0.00 0.00 60 970.4
20260507063708 6 208 6.4 20.9 0.00 0.00 0.00 61 970.7
20260507063208 6 184 6.4 20.9 0.00 0.00 0.00 64 970.6
20260507062708 5 170 8.0 20.9 0.00 0.00 0.00 66 970.2
20260507062208 5 191 6.4 17.7 0.00 0.00 0.00 66 970.3
20260507061708 5 146 8.0 20.9 0.00 0.00 0.00 66 970.2
20260507061208 5 157 8.0 20.9 0.00 0.00 0.00 67 970.2
20260507060708 5 207 8.0 20.9 0.00 0.00 0.00 68 970.1
20260507060208 5 189 8.0 20.9 0.00 0.00 0.00 67 970.2
20260507055708 5 164 6.4 20.9 0.00 0.00 0.00 66 970.2
20260507055138 6 178 4.8 14.5 0.00 0.00 0.00 64 970.2
20260507054638 6 204 4.8 12.9 0.00 0.00 0.00 64 970.4
20260507054138 6 182 4.8 16.1 0.00 0.00 0.00 64 970.2
20260507053638 5 183 4.8 16.1 0.00 0.00 0.00 64 970.1
20260507053138 6 163 4.8 11.3 0.00 0.00 0.00 64 970.6
20260507052638 6 195 4.8 14.5 0.00 0.00 0.00 64 970.3
20260507052138 6 169 4.8 14.5 0.00 0.00 0.00 63 970.0
20260507051638 6 149 4.8 12.9 0.00 0.00 0.00 65 970.3
20260507051138 6 154 4.8 12.9 0.00 0.00 0.00 65 970.4
20260507050638 5 207 4.8 12.9 0.00 0.00 0.00 64 970.0
20260507050108 6 285 4.8 12.9 0.00 0.00 0.00 63 970.3
20260507045608 6 144 3.2 11.3 0.00 0.00 0.00 63 970.1
20260507045038 7 197 1.6 9.7 0.00 0.00 0.00 60 970.0
20260507044508 7 104 1.6 9.7 0.00 0.00 0.00 62 970.1
20260507043938 6 240 1.6 8.0 0.00 0.00 0.00 66 970.2
20260507043438 5 135 3.2 9.7 0.00 0.00 0.00 69 969.9
20260507042938 3 208 3.2 16.1 0.00 0.00 0.00 72 969.6
20260507042438 3 171 3.2 16.1 0.00 0.00 0.00 74 970.0
20260507041938 4 10 3.2 11.3 0.00 0.00 0.00 73 969.9
20260507041408 3 191 3.2 12.9 0.00 0.00 0.00 75 969.4
20260507040908 1 95 3.2 12.9 0.00 0.00 0.00 83 969.3
20260507040408 1 141 1.6 8.0 0.00 0.00 0.00 85 969.3
20260507035908 0 164 1.6 6.4 0.00 0.00 0.00 87 969.3
20260507035408 0 221 1.6 6.4 0.00 0.00 0.00 91 969.3
20260507034908 0 136 1.6 6.4 0.00 0.00 0.00 91 969.3
20260507034408 0 354 1.6 6.4 0.00 0.00 0.00 92 969.3
20260507033908 0 175 1.6 4.8 0.00 0.00 0.00 91 969.3
20260507033408 0 173 3.2 4.8 0.00 0.00 0.00 93 969.2
20260507032908 0 189 1.6 4.8 0.00 0.00 0.00 92 969.2
20260507032338 0 196 1.6 4.8 0.00 0.00 0.00 90 969.2
20260507031838 0 202 1.6 4.8 0.00 0.00 0.00 88 969.2
20260507031338 -1 317 1.6 6.4 0.00 0.00 0.00 88 969.3
20260507030838 -1 99 1.6 6.4 0.00 0.00 0.00 89 969.2
20260507030338 -1 70 3.2 6.4 0.00 0.00 0.00 87 969.2
20260507025837 0 51 3.2 6.4 0.00 0.00 0.00 87 969.3
20260507025337 0 11 3.2 9.7 0.00 0.00 0.00 88 969.1
20260507024808 0 323 1.6 9.7 0.00 0.00 0.00 93 969.0
20260507024307 0 241 1.6 6.4 0.00 0.00 0.00 93 969.0
20260507023807 0 30 1.6 8.0 0.00 0.00 0.00 92 969.0
20260507023307 0 228 1.6 8.0 0.00 0.00 0.00 92 969.1
20260507022807 -1 112 1.6 8.0 0.00 0.00 0.00 91 969.0
20260507022307 -1 116 1.6 6.4 0.00 0.00 0.00 90 969.0
20260507021737 -1 161 1.6 8.0 0.00 0.00 0.00 90 969.0
20260507021237 -1 251 3.2 11.3 0.00 0.00 0.00 91 969.0
20260507020737 -1 190 3.2 11.3 0.00 0.00 0.00 91 969.0
20260507020237 0 187 3.2 9.7 0.00 0.00 0.00 89 969.0
20260507015737 0 179 3.2 9.7 0.00 0.00 0.00 89 968.6
20260507015237 0 209 3.2 11.3 0.00 0.00 0.00 89 969.0
20260507014707 0 189 3.2 11.3 0.00 0.00 0.00 89 968.6
20260507014207 0 188 3.2 9.7 0.00 0.00 0.00 89 968.5
20260507013637 0 185 3.2 9.7 0.00 0.00 0.00 88 968.5
20260507013137 0 167 3.2 9.7 0.00 0.00 0.00 88 968.5
20260507012637 0 220 3.2 12.9 0.00 0.00 0.00 88 968.5
20260507012137 0 238 4.8 19.3 0.00 0.00 0.00 87 968.4
20260507011607 0 190 4.8 19.3 0.00 0.00 0.00 87 968.4
20260507011037 0 195 4.8 16.1 0.00 0.00 0.00 87 968.5
20260507010537 0 182 3.2 16.1 0.00 0.00 0.00 87 968.5
20260507010037 0 193 3.2 9.7 0.00 0.00 0.00 87 968.4
20260507005537 0 209 4.8 11.3 0.00 0.00 0.00 86 968.3
20260507005037 0 186 4.8 11.3 0.00 0.00 0.00 86 968.3
20260507004537 0 188 3.2 11.3 0.00 0.00 0.00 85 968.2
20260507004037 0 169 3.2 11.3 0.00 0.00 0.00 84 968.1
20260507003507 0 183 3.2 11.3 0.00 0.00 0.00 84 968.1
20260507003007 0 117 3.2 8.0 0.00 0.00 0.00 82 968.2
20260507002437 0 191 3.2 8.0 0.00 0.00 0.00 81 968.1
20260507001937 0 198 3.2 8.0 0.00 0.00 0.00 81 968.1
20260507001437 0 188 1.6 8.0 0.00 0.00 0.00 80 968.1
20260507000937 0 186 3.2 8.0 0.00 0.00 0.00 80 968.0
20260507000407 0 254 3.2 9.7 0.00 0.00 0.00 79 968.0
20260506235907 0 207 3.2 9.7 0.00 0.00 0.00 78 968.0
20260506235407 0 173 3.2 9.7 0.00 0.00 0.00 78 968.0
20260506234907 0 190 3.2 9.7 0.00 0.00 0.00 77 968.0
20260506234407 0 191 3.2 9.7 0.00 0.00 0.00 76 968.0
20260506233907 0 136 1.6 8.0 0.00 0.00 0.00 75 968.0
20260506233407 0 210 1.6 6.4 0.00 0.00 0.00 75 968.0
20260506232907 0 161 1.6 6.4 0.00 0.00 0.00 75 968.0
20260506232407 0 250 1.6 8.0 0.00 0.00 0.00 76 968.0
20260506231837 0 235 3.2 8.0 0.00 0.00 0.00 75 968.0
20260506231337 0 215 3.2 6.4 0.00 0.00 0.00 75 968.0
20260506230837 0 204 3.2 9.7 0.00 0.00 0.00 75 968.0
20260506230337 0 206 1.6 9.7 0.00 0.00 0.00 76 968.0
20260506225836 0 191 1.6 4.8 0.00 0.00 0.00 76 968.0
20260506225336 0 136 1.6 4.8 0.00 0.00 0.00 76 968.0
20260506224836 0 329 1.6 3.2 0.00 0.00 0.00 75 968.0
20260506224306 0 190 0.0 3.2 0.00 0.00 0.00 76 967.6
20260506223736 0 259 0.0 3.2 0.00 0.00 0.00 74 967.6
20260506223236 0 276 1.6 3.2 0.00 0.00 0.00 73 968.0
20260506222736 0 186 1.6 4.8 0.00 0.00 0.00 74 967.6
20260506222236 0 199 3.2 9.7 0.00 0.00 0.00 74 967.6
20260506221736 0 293 4.8 9.7 0.00 0.00 0.00 73 967.6
20260506221206 0 13 3.2 8.0 0.00 0.00 0.00 72 967.5
20260506220706 1 256 3.2 6.4 0.00 0.00 0.00 73 967.5
20260506220136 1 278 3.2 9.7 0.00 0.00 0.00 72 967.5
20260506215636 1 255 4.8 9.7 0.00 0.00 0.00 72 967.4
20260506215136 1 219 4.8 9.7 0.00 0.00 0.00 72 967.4
20260506214636 1 229 4.8 11.3 0.00 0.00 0.00 71 967.3
20260506214136 1 247 6.4 11.3 0.00 0.00 0.00 71 967.4
20260506213636 1 226 4.8 11.3 0.00 0.00 0.00 70 967.3
20260506213136 1 241 4.8 11.3 0.00 0.00 0.00 70 967.3
20260506212636 1 237 4.8 12.9 0.00 0.00 0.00 69 967.3
20260506212106 1 224 6.4 12.9 0.00 0.00 0.00 68 967.3
20260506211606 2 289 6.4 14.5 0.00 0.00 0.00 68 967.3
20260506211036 2 212 6.4 14.5 0.00 0.00 0.00 67 967.3
20260506210536 2 245 6.4 19.3 0.00 0.00 0.00 66 967.1
20260506210036 2 238 4.8 19.3 0.00 0.00 0.00 65 967.1
20260506205506 2 222 4.8 14.5 0.00 0.00 0.00 64 967.0
20260506205006 2 208 4.8 14.5 0.00 0.00 0.00 64 967.0
20260506204506 2 182 4.8 14.5 0.00 0.00 0.00 63 967.0
20260506204006 2 198 4.8 14.5 0.00 0.00 0.00 63 967.1
20260506203506 2 197 6.4 16.1 0.00 0.00 0.00 62 967.0
20260506203006 2 235 8.0 19.3 0.00 0.00 0.00 62 967.0
20260506202506 2 183 8.0 19.3 0.00 0.00 0.00 61 967.0
20260506202006 3 202 8.0 17.7 0.00 0.00 0.00 58 967.0
20260506201506 3 156 8.0 17.7 0.00 0.00 0.00 56 967.0
20260506201005 3 163 8.0 19.3 0.00 0.00 0.00 55 967.0
20260506200435 3 171 8.0 19.3 0.00 0.00 0.00 54 967.0